SL-8 DEB, 1617

Orbit data source: Space-Track

SL-8 DEB, 1617 is space debris in LEO originally from a launch on Sat, 18 Sep 1965 UTC launched from the Tyuratam Missile And Space Complex (TTMTR). Debris objects in space refer to the collection of defunct objects orbiting the Earth. Examples of debris include non-operational satellites, rocket bodies, and fragments generated from explosions, collisions, or faulty payload assembly.

Loading next visibility...
Identifier
1617, 1965-073J
Orbit
LEO
Country
Flag of CISCIS
Related business
Manufacturer
Unknown
Mission
Spacecraft
Bus & Motor
Unknown
Mass
Unknown
Launch date (UTC)
1965-09-18 (61 years ago)
Launch vehicle
Unknown
Launch site
Tyuratam Missile And Space Complex (TTMTR)
Object type
Payload
Rocket body
Debris
Shape & HBR
Unknown shape, 0.2 m
Radar Cross Section
Medium (>0.1 m² and <1 m²)

Expand to show TLE details & history
Last TLE update: 7 hours ago

TLE from 7 hours ago
0 SL-8 DEB
1 01617U 65073J   26207.27741793 -.00001204  00000-0 -81488-2 0  9993
2 01617  56.1301 322.7510 0227531 357.5086  20.2047 12.34833101735272
Epoch: 2026-07-26T06:39Z
TLE epoch observation values (Epoch: 2026-07-26T06:39:28.909Z)
Latitude
15.39844°
Longitude
-70.4978°
Altitude
1,360.634 km
Speed
7.256 km/s
True Right ascension
22h 13m 24s
True Declination
15° 19' 03"
Sunlit
Object was in full shadow at epoch
Visualization orbit readout
Latitude
Unknown
Longitude
Unknown
Altitude
Unknown
Speed
Unknown
Apparent Right ascension
Unknown
Apparent Declination
Unknown
Sunlit
N/A
Visualization observer readout
Local Sidereal Time
02:26:54
Azimuth
Unknown
Elevation
Unknown
Doppler factor
Unknown
Orbital elements
Apogee altitude
1,708.295 km
Perigee altitude
1,348.499 km
Semi-major axis
7,906.534 km
Eccentricity
0.02275
Inclination
56.1301°
RAAN
322.751°
Arg. of periapsis
357.5086°
True anomaly
21.12983°
Mean anomaly
20.2047°
Eccentric anomaly
20.66476°
Mean motion
3.08719 °/min
Orbital period
116.61 mins
BSTAR
-0.0081488
Loading maneuver chart data...
Computing Atmospheric mass density...
Loading historical data...
Loading historical data...
Loading historical data...
Loading historical data...
Loading historical data...
Loading historical data...
Loading historical data...

Documentation

Showing up to 5 results
|